Weather observations for the past three days for
Osceola Municipal Airport
Imperial (Metric)
Date Time (cdt) Wind (mph) Vis. (mi.) Weather Sky Cond. Temperature (ºF) Relative Humidity Wind Chill (°F) Heat Index (°F) Pressure Precipitation (in)
Air Dwpt 6 hour altimeter (in) sea level (mb) 1 hr 3 hr 6 hr
Max. Min.
09 17:55 N 14 10.00 Fair CLR 69.6 42.4 37% 29.83 0.0
09 17:35 N 14 G 17 10.00 Partly Cloudy SCT120 68.9 42.1 38% 29.82 0.0
09 17:15 N 15 G 21 10.00 Partly Cloudy SCT110 69.6 41 35% 29.81 0.0
09 16:55 N 14 7.00 Partly Cloudy SCT110 70 40.1 34% 29.8 0.0
09 16:35 NW 12 7.00 Mostly Cloudy BKN110 70.3 36 28% 29.79 0.0
09 16:15 N 8 10.00 Partly Cloudy SCT110 70.7 33.8 26% 29.79 0.0
09 15:55 N 10 7.00 Mostly Cloudy BKN110 71.6 32.2 23% 29.79 0.0
09 15:35 N 15 10.00 Partly Cloudy SCT110 73.4 31.8 22% 29.79 0.0
09 15:15 NW 13 7.00 Partly Cloudy SCT120 73.4 31.8 22% 29.79 0.0
09 14:55 NW 14 7.00 Partly Cloudy SCT120 74.8 31.8 21% 29.79 0.0
09 14:35 NW 9 7.00 Partly Cloudy SCT120 74.7 32.5 21% 29.78 0.0
09 14:15 NW 12 G 16 7.00 Partly Cloudy SCT120 74.5 32.4 21% 29.78 0.0
09 13:55 W 15 G 20 7.00 Fair CLR 77 32.7 20% 77 29.78 0.0
09 13:35 W 10 G 16 10.00 Fair CLR 76.5 34.2 21% 77 29.78 0.0
09 13:15 NW 10 7.00 Fair CLR 76.5 35.8 23% 77 29.77 0.0
09 12:35 NW 7 7.00 Fair CLR 75 33.6 22% 76 29.77 0.0
09 12:15 NW 9 10.00 Fair CLR 75.2 33.6 22% 76 29.77 0.0
09 11:55 NW 12 G 18 7.00 Fair CLR 74.8 32.7 21% 29.78 0.0
09 11:35 NW 15 G 18 7.00 Fair CLR 73.8 33.4 23% 29.78 0.0
09 11:15 NW 14 G 21 7.00 Fair CLR 73.4 34.5 24% 29.78 0.0
09 10:55 W 13 7.00 Fair CLR 74.5 36 25% 29.77 0.0
09 10:35 W 14 G 18 7.00 Fair CLR 73.8 34.3 24% 29.76 0.0
09 10:15 W 13 10.00 Fair CLR 72.1 34 25% 29.75 0.0
09 09:55 W 9 7.00 Fair CLR 70.7 35.2 27% 29.75 0.0
09 09:35 W 7 7.00 Fair CLR 69.1 36.3 30% 29.75 0.0
09 09:15 SW 7 7.00 Fair CLR 66.6 40.3 38% 29.76 0.0
09 08:55 SW 8 7.00 Fair CLR 65.3 40.8 41% 29.75 0.0
09 08:15 W 5 5.00 Fair with Haze CLR 59.4 43.7 56% 29.75 0.0
09 07:55 W 6 10.00 Fair CLR 56.3 43.9 63% 29.75 0.0
09 07:35 SW 6 10.00 Fair CLR 53.1 44.8 74% 29.75 0.0
09 07:15 W 7 10.00 Fair CLR 49.8 44.6 82% 47 29.75 0.0
09 06:55 W 6 10.00 Fair CLR 47.3 43.5 55.6 46 87% 45 29.73 0.0
09 06:35 W 6 10.00 Fair CLR 48.2 43.9 85% 46 29.73 0.0
09 06:15 SW 7 10.00 Fair CLR 46.8 42.1 84% 44 29.71 0.0
09 05:55 W 6 10.00 Fair CLR 47.3 42.8 84% 45 29.71 0.0
09 05:35 W 7 10.00 Fair CLR 48.2 43 82% 46 29.71 0.0
09 05:15 W 7 10.00 Fair CLR 48.4 43.7 84% 46 29.71 0.0
09 04:35 W 7 10.00 Fair CLR 49.6 44.6 83% 47 29.71 0.0
09 04:15 W 7 10.00 Fair CLR 50.5 45.1 82% 29.71 0.0
09 03:55 W 6 10.00 Fair CLR 50.2 45.1 83% 29.71 0.0
09 03:35 W 6 10.00 Fair CLR 51.1 45.7 82% 29.7 0.0
09 03:15 SW 6 10.00 Fair CLR 51.8 45.9 80% 29.7 0.0
09 02:55 SW 6 10.00 Fair CLR 52 46.4 81% 29.7 0.0
09 02:35 SW 3 10.00 Fair CLR 52.2 46.9 83% 29.71 0.0
09 02:15 SW 5 10.00 Fair CLR 52.7 47.3 82% 29.71 0.0
09 01:55 SW 7 10.00 Fair CLR 53.6 47.8 81% 29.71 0.0
09 01:35 SW 10 10.00 Fair CLR 54.9 48.4 79% 29.71 0.0
09 01:15 SW 10 10.00 Fair CLR 55.4 48.6 78% 29.71 0.0
09 00:55 SW 10 10.00 Fair CLR 55.6 48.7 70.7 54.7 78% 29.71 0.0
09 00:35 SW 10 10.00 Fair CLR 55.8 48.9 78% 29.71 0.0
09 00:15 SW 12 10.00 Fair CLR 55.6 49.1 79% 29.71 0.0
08 23:55 S 10 10.00 Fair CLR 54.7 49.1 82% 29.72 0.0
08 23:35 S 10 10.00 Fair CLR 55.4 49.1 79% 29.72 0.0
08 23:15 S 9 10.00 Fair CLR 56.3 49.3 77% 29.72 0.0
08 22:55 S 10 10.00 Fair CLR 57 49.3 75% 29.73 0.0
08 22:35 S 10 10.00 Fair CLR 57.7 49.3 74% 29.72 0.0
08 22:15 S 10 10.00 Fair CLR 58.6 49.1 71% 29.72 0.0
08 21:55 S 10 10.00 Fair CLR 59.4 49.1 69% 29.72 0.0
08 21:35 S 9 7.00 Partly Cloudy SCT100 60.6 49.5 67% 29.72 0.0
08 21:15 S 7 7.00 Mostly Cloudy BKN100 61.9 49.6 64% 29.72 0.0
08 20:55 S 10 10.00 Mostly Cloudy BKN110 62.6 49.6 63% 29.71 0.0
08 20:35 S 12 10.00 Fair CLR 63.1 49.1 60% 29.71 0.0
08 20:15 S 15 10.00 Fair CLR 64.6 48.2 56% 29.7 0.0
08 19:55 S 10 10.00 Fair CLR 66.4 45.9 48% 29.7 0.0
08 19:35 S 13 7.00 Fair CLR 68.2 44.4 42% 29.69 0.0
08 19:15 S 9 7.00 Fair CLR 69.6 41.4 36% 29.69 0.0
08 18:55 S 12 10.00 Fair CLR 70.7 40.5 74.3 69.8 33% 29.69 0.0
08 18:35 S 15 7.00 Fair CLR 71.8 40.6 32% 29.7 0.0
08 18:15 S 14 G 20 7.00 Fair CLR 72.7 39.4 30% 29.71 0.0
08 17:55 S 10 G 17 10.00 Fair CLR 73 40.6 31% 29.71 0.0
08 17:35 S 13 G 17 7.00 Fair CLR 73.2 38.3 28% 29.71 0.0
08 17:15 S 9 7.00 Fair CLR 74.1 38.3 27% 29.71 0.0
08 16:55 SW 10 G 18 7.00 Fair CLR 72.5 35.1 25% 29.72 0.0
08 16:35 S 8 10.00 Partly Cloudy SCT095 73.8 36.1 25% 29.73 0.0
08 16:15 SW 5 G 9 10.00 Partly Cloudy SCT100 72.5 36.1 27% 29.73 0.0
08 15:55 SW 8 10.00 Fair CLR 71.4 36.5 28% 29.74 0.0
08 15:35 W 3 10.00 Fair CLR 71.6 35.2 26% 29.74 0.0
08 15:15 N 3 7.00 Fair CLR 72.1 35.6 26% 29.75 0.0
08 14:55 Calm 7.00 Fair CLR 71.8 34.7 26% 29.75 0.0
08 14:35 W 9 7.00 Partly Cloudy SCT070 72.1 36.7 27% 29.76 0.0
08 14:15 S 8 10.00 Partly Cloudy SCT070 71.1 35.4 27% 29.76 0.0
08 13:55 W 8 7.00 Fair CLR 72 36.9 28% 29.77 0.0
08 13:35 SW 7 7.00 Fair CLR 71.4 35.8 27% 29.78 0.0
08 13:15 W 8 7.00 Fair CLR 70.3 37.8 30% 29.78 0.0
08 12:55 S 10 7.00 Fair CLR 69.8 39.4 69.8 47.5 33% 29.79 0.0
08 12:35 SW 7 7.00 Fair CLR 68.7 42.1 38% 29.79 0.0
08 12:15 SE 5 7.00 Fair CLR 67.3 41 38% 29.79 0.0
08 11:55 S 6 7.00 Fair CLR 66.4 46 48% 29.8 0.0
08 11:35 SE 5 7.00 Fair CLR 64.2 47.1 54% 29.81 0.0
08 11:15 S 3 7.00 Fair CLR 61.2 48 62% 29.81 0.0
08 10:55 S 3 7.00 Fair CLR 59.9 48.6 66% 29.82 0.0
08 10:35 Calm 7.00 Fair CLR 58.6 48.6 69% 29.82 0.0
08 10:15 Calm 7.00 Fair CLR 55.6 47.3 74% 29.82 0.0
08 09:55 Calm 4.00 Fair with Haze CLR 53.8 46.4 76% 29.82 0.0
08 09:35 SE 5 7.00 Partly Cloudy SCT065 SCT090 53.1 45.9 77% 29.82 0.0
08 09:15 SE 5 10.00 Light Rain SCT029 SCT049 SCT065 52.7 45 75% 29.83 0.0
08 08:55 Calm 7.00 Light Rain BKN070 BKN080 BKN095 51.8 43.9 75% 29.85 0.0
08 08:35 Calm 5.00 Mostly Cloudy with Haze BKN095 51.4 43.2 73% 29.83 0.0
08 08:15 S 3 7.00 Mostly Cloudy BKN095 BKN110 50.5 42.8 75% 29.82 0.0
08 07:55 SE 3 7.00 Partly Cloudy SCT100 50 40.8 71% 29.81 0.0
08 07:35 Calm 7.00 Partly Cloudy SCT100 49.1 40.1 71% 29.81 0.0
08 07:15 Calm 7.00 Partly Cloudy SCT100 SCT110 48.2 40.6 75% 29.81 0.0
08 06:55 Calm 7.00 Mostly Cloudy SCT100 BKN110 47.5 41 51.1 40.5 78% 29.81 0.0
08 06:35 Calm 10.00 Mostly Cloudy BKN120 47.3 40.3 77% 29.81 0.0
08 06:15 Calm 10.00 Fair CLR 46 39.7 79% 29.82 0.0
08 05:55 Calm 10.00 Partly Cloudy SCT090 46.8 39.6 76% 29.82 0.0
08 05:35 N 6 10.00 Mostly Cloudy BKN090 BKN110 44.8 39.7 83% 42 29.81 0.0
08 05:15 Calm 10.00 Partly Cloudy SCT100 44.8 39 80% 29.82 0.0
08 04:55 NW 3 10.00 Partly Cloudy SCT100 42.6 37.6 82% 29.82 0.0
08 04:35 Calm 10.00 Fair CLR 43.9 37.4 78% 29.83 0.0
08 04:15 Calm 10.00 Fair CLR 43.9 37.8 79% 29.82 0.0
08 03:55 NW 5 10.00 Fair CLR 43.7 37.4 79% 42 29.82 0.0
08 03:35 W 5 10.00 Fair CLR 41 35.4 81% 38 29.82 0.0
08 03:15 Calm 10.00 Fair CLR 43.5 36.7 77% 29.81 0.0
08 02:55 Calm 10.00 Fair CLR 43.7 37.2 78% 29.81 0.0
08 02:35 W 5 10.00 Fair CLR 43.7 36.5 76% 42 29.82 0.0
08 02:15 NW 3 10.00 Fair CLR 47.1 37.9 71% 29.82 0.0
08 01:55 W 3 10.00 Fair CLR 45.1 37.4 74% 29.82 0.0
08 01:35 Calm 10.00 Fair CLR 46.9 38.7 73% 29.82 0.0
08 01:15 NW 5 10.00 Fair CLR 46.9 38.3 72% 45 29.82 0.0
08 00:55 N 3 10.00 Fair CLR 50.9 39.2 68 49.3 64% 29.82 0.0
08 00:35 Calm 10.00 Fair CLR 50.7 39 64% 29.82 0.0
08 00:15 Calm 10.00 Fair CLR 49.6 38.5 66% 29.82 0.0
07 23:55 N 3 10.00 Fair CLR 50.7 38.7 63% 29.82 0.0
07 23:35 N 5 10.00 Fair CLR 51.1 38.7 63% 29.82 0.0
07 23:15 N 6 10.00 Fair CLR 53.1 39.2 60% 29.82 0.0
07 22:55 N 7 10.00 Fair CLR 52.3 39.9 63% 29.82 0.0
07 22:35 N 3 10.00 Fair CLR 56.5 39.6 53% 29.82 0.0
07 22:15 Calm 10.00 Fair CLR 58.5 39.4 49% 29.82 0.0
07 21:55 Calm 7.00 Fair CLR 58.3 39.7 50% 29.82 0.0
07 21:35 N 7 10.00 Fair CLR 53.8 40.5 61% 29.81 0.0
07 21:15 E 5 10.00 Fair CLR 57.2 40.1 53% 29.79 0.0
07 20:55 SE 3 10.00 Fair CLR 59.2 39.6 48% 29.79 0.0
07 20:35 S 5 7.00 Fair CLR 59.9 40.1 48% 29.78 0.0
07 20:15 S 6 10.00 Partly Cloudy SCT100 64.2 37.8 38% 29.78 0.0
07 19:55 S 7 7.00 Mostly Cloudy BKN100 65.8 36.7 34% 29.77 0.0
07 19:35 S 6 10.00 Mostly Cloudy BKN090 BKN110 66.6 35.1 31% 29.77 0.0
07 19:15 S 6 7.00 Mostly Cloudy BKN090 BKN110 67.6 35.1 30% 29.77 0.0
07 18:55 S 5 10.00 Partly Cloudy SCT090 SCT110 68.2 35.1 70.7 64.6 30% 29.77 0.0
07 18:35 S 7 10.00 Mostly Cloudy BKN090 BKN110 68.9 33.4 27% 29.78 0.0
07 18:15 S 12 10.00 Mostly Cloudy BKN090 BKN110 68.5 33.8 28% 29.78 0.0
07 17:55 SW 6 7.00 Mostly Cloudy BKN090 BKN110 68.9 32.7 26% 29.78 0.0
07 17:35 SW 10 G 16 7.00 Mostly Cloudy BKN100 68.9 32.5 26% 29.79 0.0
07 17:15 SW 7 7.00 Partly Cloudy SCT110 69.8 33.1 26% 29.79 0.0
07 16:55 SW 9 7.00 Partly Cloudy SCT110 67.5 32.5 27% 29.81 0.0
07 16:35 SW 13 G 20 10.00 Mostly Cloudy BKN110 69.8 32.7 25% 29.81 0.0
07 16:15 SW 16 7.00 Partly Cloudy SCT110 69.6 32.4 25% 29.82 0.0
07 15:55 W 12 10.00 Partly Cloudy SCT095 SCT120 68 32.7 27% 29.83 0.0
07 15:35 SW 13 G 21 7.00 Mostly Cloudy SCT070 BKN095 70 33.1 26% 29.83 0.0
07 15:15 S 12 7.00 Mostly Cloudy SCT070 BKN085 BKN120 0 0 0% 29.84 0.0
07 14:55 SW 10 7.00 Partly Cloudy SCT080 SCT085 SCT120 67.3 33.3 28% 29.84 0.0
07 14:35 SW 13 G 21 7.00 Partly Cloudy SCT070 SCT085 69.4 33.8 27% 29.85 0.0
07 14:15 SW 15 G 23 7.00 Partly Cloudy SCT070 SCT085 69.6 33.6 27% 29.85 0.0
07 13:55 SW 15 G 23 7.00 Partly Cloudy SCT070 67.5 34 29% 29.86 0.0
07 13:35 W 14 G 17 7.00 Partly Cloudy SCT070 67.3 32.4 27% 29.86 0.0
07 13:15 SW 14 G 18 10.00 Partly Cloudy SCT070 SCT100 67.8 33.1 28% 29.86 0.0
07 12:55 W 15 G 20 5.00 Mostly Cloudy with Haze BKN070 65.1 32.5 66.4 42.6 30% 29.87 0.0
07 12:35 W 15 G 21 7.00 Partly Cloudy SCT060 SCT080 65.1 34.9 33% 29.88 0.0
07 12:15 W 14 G 22 7.00 Partly Cloudy SCT060 65.7 35.1 32% 29.89 0.0
07 11:55 W 15 G 23 7.00 Partly Cloudy SCT060 64.4 36 35% 29.89 0.0
07 11:35 SW 13 G 17 7.00 Fair CLR 63.9 37 37% 29.9 0.0
07 11:15 SW 8 7.00 Fair CLR 62.1 39.7 44% 29.91 0.0
07 10:55 SW 9 5.00 Partly Cloudy with Haze SCT100 59.5 40.3 49% 29.92 0.0
07 10:35 W 8 7.00 Mostly Cloudy BKN100 57.4 39.6 52% 29.92 0.0
07 10:15 W 13 7.00 Partly Cloudy SCT110 56.7 39.6 53% 29.93 0.0
07 09:55 W 12 7.00 Partly Cloudy SCT110 57.2 38.7 50% 29.92 0.0
07 09:35 W 13 G 17 7.00 Mostly Cloudy BKN110 56.5 38.7 51% 29.92 0.0
07 09:15 SW 10 G 21 10.00 Partly Cloudy SCT110 56.7 39 52% 29.92 0.0
07 08:55 SW 14 5.00 Fair with Haze CLR 54.7 39.2 56% 29.92 0.0
07 08:35 SW 12 7.00 Fair CLR 52 38.1 59% 29.92 0.0
07 08:15 SW 12 7.00 Fair CLR 49.5 36.7 62% 45 29.93 0.0
07 07:55 SW 13 7.00 Fair CLR 47.8 35.4 62% 43 29.93 0.0
07 07:35 SW 10 7.00 Fair CLR 46.4 34.3 63% 42 29.93 0.0
07 07:15 SW 8 5.00 Fair with Haze CLR 44.2 33.4 66% 40 29.92 0.0
07 06:55 SW 8 5.00 Fair with Haze CLR 42.4 32 44.2 40.6 67% 38 29.92 0.0
07 06:35 SW 8 7.00 Fair CLR 41 31.8 70% 36 29.92 0.0
07 06:15 SW 8 5.00 Fair with Haze CLR 41 31.1 68% 36 29.92 0.0
07 05:55 SW 9 7.00 Fair CLR 41.4 30.9 67% 36 29.92 0.0
07 05:35 SW 10 10.00 Fair CLR 42.8 30.2 61% 38 29.93 0.0
07 05:15 SW 9 7.00 Fair CLR 44.1 29.8 57% 40 29.93 0.0
07 04:55 SW 12 7.00 Fair CLR 43.3 29.5 58% 38 29.93 0.0
07 04:35 SW 10 7.00 Fair CLR 42.8 29.8 60% 38 29.93 0.0
07 04:15 S 8 7.00 Partly Cloudy SCT110 42.4 29.3 60% 38 29.93 0.0
07 03:55 S 9 7.00 Partly Cloudy SCT110 43 29.3 59% 38 29.94 0.0
07 03:35 S 9 7.00 Partly Cloudy SCT110 41.5 29.3 62% 36 29.95 0.0
07 03:15 S 7 7.00 Mostly Cloudy BKN110 41.2 28.9 62% 37 29.96 0.0
07 02:55 S 8 7.00 Partly Cloudy SCT110 41 28.6 61% 36 29.97 0.0
07 02:35 S 7 7.00 Partly Cloudy SCT110 41 28.4 61% 37 29.98 0.0
07 02:15 S 7 10.00 Fair CLR 41.4 27.9 59% 37 29.98 0.0
07 01:55 S 6 7.00 Fair CLR 41 27.5 59% 38 29.99 0.0
07 01:35 S 7 7.00 Fair CLR 41.2 27.5 58% 37 29.99 0.0
07 01:15 S 7 7.00 Fair CLR 41.4 27.3 57% 37 30 0.0
07 00:55 S 7 7.00 Fair CLR 43.7 26.4 56.3 38.3 51% 40 30.01 0.0
07 00:35 S 6 7.00 Fair CLR 42.4 26.8 54% 39 30.01 0.0
07 00:15 S 5 7.00 Fair CLR 40.1 27.5 61% 37 30.01 0.0
06 23:55 S 5 7.00 Fair CLR 40.6 27.1 59% 38 30.01 0.0
06 23:35 S 5 7.00 Fair CLR 38.8 28.4 66% 36 30.01 0.0
06 23:15 Calm 7.00 Fair CLR 39.4 27.3 62% 30.01 0.0
06 22:55 S 5 7.00 Fair CLR 41 26.8 57% 38 30.02 0.0
06 22:15 Calm 10.00 Fair CLR 43.2 26.8 53% 30.02 0.0
06 21:55 Calm 10.00 Fair CLR 42.4 28.6 58% 30.02 0.0
06 21:35 Calm 10.00 Fair CLR 41.9 28.6 59% 30.02 0.0
06 21:15 Calm 10.00 Fair CLR 45.3 25 45% 30.02 0.0
06 20:55 Calm 7.00 Fair CLR 48.2 23.7 38% 30.02 0.0
06 20:35 Calm 7.00 Fair CLR 50.2 24.8 37% 30.01 0.0
06 20:15 NW 3 7.00 Fair CLR 51.1 23.2 34% 30.01 0.0
06 19:55 NW 3 7.00 Fair CLR 52.7 23.4 32% 30.01 0.0
06 19:35 NW 6 7.00 Fair CLR 54.5 22.6 29% 30.01 0.0
06 19:15 NW 9 7.00 Fair CLR 55.9 21 26% 30.01 0.0
06 18:55 W 12 7.00 Fair CLR 56.3 21.6 59.2 54.3 26% 30.01 0.0
06 18:35 W 10 G 16 7.00 Fair CLR 57.2 21 24% 30.02 0.0
Date Time (cdt) Wind (mph) Vis. (mi.) Weather Sky Cond. Air Dwpt Max. Min. Relative Humidity Wind Chill (°F) Heat Index (°F) altimeter (in) sea level (mb) 1 hr 3 hr 6 hr
6 hour
Temperature (ºF) Pressure Precipitation (in)